Location: Andershausen
(51.8462°N, 9.8595°E)
Time: 09:39:33
(UTC+00:00)

ATLAS 2AS CENTAUR R/B - Pass Details

Date: 18 November 2025
Orbit: 1047 x 1163 km, 63.7° (Epoch: 11 December)

Event Time Altitude Azimuth Distance (km) Brightness Sun altitude
Rises 17:30:16 0° 311° (NW) 3,862 6.2 -18.9°
Reaches altitude 10° 17:33:01 10° 316° (NW) 2,893 5.4 -19.3°
Maximum altitude 17:39:41 54° 34° (NNE) 1,259 2.8 -20.3°
Enters shadow 17:42:14 36° 90° (E) 1,606 3.1 -20.7°
